owner,sensor,date,latitude,longitude,vertical_datum,sea_water_practical_salinity,qcFlag 
NERRS,ioos:station:NOAA.NERRS:gndbcwq:1,2014-05-01T00:00:00Z,30.3836,-88.4364,0.55,1.3,1111122 
NERRS,ioos:station:NOAA.NERRS:gndbcwq:1,2014-05-01T01:00:00Z,30.3836,-88.4364,0.46,1.3,1111122 
NERRS,ioos:station:NOAA.NERRS:gndbcwq:1,2014-05-01T02:00:00Z,30.3836,-88.4364,0.44,1.1,1111122 
NERRS,ioos:station:NOAA.NERRS:gndbcwq:1,2014-05-01T03:00:00Z,30.3836,-88.4364,0.38,1.3,1111122 
NERRS,ioos:station:NOAA.NERRS:gndbcwq:1,2014-05-01T04:00:00Z,30.3836,-88.4364,0.42,0.2,1111122 
NERRS,ioos:station:NOAA.NERRS:gndbcwq:1,2014-05-01T05:00:00Z,30.3836,-88.4364,0.44,0.4,1111122 
NERRS,ioos:station:NOAA.NERRS:gndbcwq:1,2014-05-01T06:00:00Z,30.3836,-88.4364,0.45,0.2,1111122 
NERRS,ioos:station:NOAA.NERRS:gndbcwq:1,2014-05-01T07:00:00Z,30.3836,-88.4364,0.47,0.3,1111122 
NERRS,ioos:station:NOAA.NERRS:gndbcwq:1,2014-05-01T08:00:00Z,30.3836,-88.4364,0.45,0.2,1111122 
NERRS,ioos:station:NOAA.NERRS:gndbcwq:1,2014-05-01T09:00:00Z,30.3836,-88.4364,0.41,0.3,1111122 
NERRS,ioos:station:NOAA.NERRS:gndbcwq:1,2014-05-01T10:00:00Z,30.3836,-88.4364,0.44,0.2,1111122 
NERRS,ioos:station:NOAA.NERRS:gndbcwq:1,2014-05-01T11:00:00Z,30.3836,-88.4364,0.54,0.1,1111122 
NERRS,ioos:station:NOAA.NERRS:gndbcwq:1,2014-05-01T12:00:00Z,30.3836,-88.4364,0.54,0.1,1111122 
NERRS,ioos:station:NOAA.NERRS:gndbcwq:1,2014-05-01T13:00:00Z,30.3836,-88.4364,0.6,0.1,1111122 
NERRS,ioos:station:NOAA.NERRS:gndbcwq:1,2014-05-01T14:00:00Z,30.3836,-88.4364,0.65,0.1,1111122 
NERRS,ioos:station:NOAA.NERRS:gndbcwq:1,2014-05-01T15:00:00Z,30.3836,-88.4364,0.74,0.1,1111122 
NERRS,ioos:station:NOAA.NERRS:gndbcwq:1,2014-05-01T16:00:00Z,30.3836,-88.4364,0.83,0.1,1111122 
NERRS,ioos:station:NOAA.NERRS:gndbcwq:1,2014-05-01T17:00:00Z,30.3836,-88.4364,0.88,0.1,1111122 
NERRS,ioos:station:NOAA.NERRS:gndbcwq:1,2014-05-01T18:00:00Z,30.3836,-88.4364,0.86,0.1,1111122 
NERRS,ioos:station:NOAA.NERRS:gndbcwq:1,2014-05-01T19:00:00Z,30.3836,-88.4364,0.84,0.1,1111122 
NERRS,ioos:station:NOAA.NERRS:gndbcwq:1,2014-05-01T20:00:00Z,30.3836,-88.4364,0.79,0.1,1111122 
NERRS,ioos:station:NOAA.NERRS:gndbcwq:1,2014-05-01T21:00:00Z,30.3836,-88.4364,0.76,0.1,1111122 
NERRS,ioos:station:NOAA.NERRS:gndbcwq:1,2014-05-01T22:00:00Z,30.3836,-88.4364,0.7,0.2,1111122 
NERRS,ioos:station:NOAA.NERRS:gndbcwq:1,2014-05-01T23:00:00Z,30.3836,-88.4364,0.62,0.2,1111122 
NERRS,ioos:station:NOAA.NERRS:gndbcwq:1,2014-05-02T00:00:00Z,30.3836,-88.4364,0.52,0.4,1111122 
NERRS,ioos:station:NOAA.NERRS:gndbcwq:1,2014-05-02T01:00:00Z,30.3836,-88.4364,0.43,0.6,1111122 
NERRS,ioos:station:NOAA.NERRS:gndbcwq:1,2014-05-02T02:00:00Z,30.3836,-88.4364,0.38,0.6,1111122 
NERRS,ioos:station:NOAA.NERRS:gndbcwq:1,2014-05-02T03:00:00Z,30.3836,-88.4364,0.34,0.4,1111122 
NERRS,ioos:station:NOAA.NERRS:gndbcwq:1,2014-05-02T04:00:00Z,30.3836,-88.4364,0.35,0.3,1111122 
NERRS,ioos:station:NOAA.NERRS:gndbcwq:1,2014-05-02T05:00:00Z,30.3836,-88.4364,0.34,0.3,1111122 
NERRS,ioos:station:NOAA.NERRS:gndbcwq:1,2014-05-02T06:00:00Z,30.3836,-88.4364,0.35,0.2,1111122 
NERRS,ioos:station:NOAA.NERRS:gndbcwq:1,2014-05-02T07:00:00Z,30.3836,-88.4364,0.39,0.1,1111122 
NERRS,ioos:station:NOAA.NERRS:gndbcwq:1,2014-05-02T08:00:00Z,30.3836,-88.4364,0.45,0.1,1111122 
NERRS,ioos:station:NOAA.NERRS:gndbcwq:1,2014-05-02T09:00:00Z,30.3836,-88.4364,0.48,0.1,1111122 
NERRS,ioos:station:NOAA.NERRS:gndbcwq:1,2014-05-02T10:00:00Z,30.3836,-88.4364,0.52,0.1,1111122 
NERRS,ioos:station:NOAA.NERRS:gndbcwq:1,2014-05-02T11:00:00Z,30.3836,-88.4364,0.53,0.1,1111122 
NERRS,ioos:station:NOAA.NERRS:gndbcwq:1,2014-05-02T12:00:00Z,30.3836,-88.4364,0.6,0.1,1111122 
NERRS,ioos:station:NOAA.NERRS:gndbcwq:1,2014-05-02T13:00:00Z,30.3836,-88.4364,0.67,0.1,1111122 
NERRS,ioos:station:NOAA.NERRS:gndbcwq:1,2014-05-02T14:00:00Z,30.3836,-88.4364,0.73,0.1,1111122 
NERRS,ioos:station:NOAA.NERRS:gndbcwq:1,2014-05-02T15:00:00Z,30.3836,-88.4364,0.79,0.1,1111122 
NERRS,ioos:station:NOAA.NERRS:gndbcwq:1,2014-05-02T16:00:00Z,30.3836,-88.4364,0.84,0.1,1111122 
NERRS,ioos:station:NOAA.NERRS:gndbcwq:1,2014-05-02T17:00:00Z,30.3836,-88.4364,0.88,2.1,1111122 
NERRS,ioos:station:NOAA.NERRS:gndbcwq:1,2014-05-02T18:00:00Z,30.3836,-88.4364,0.88,0.3,1111122 
NERRS,ioos:station:NOAA.NERRS:gndbcwq:1,2014-05-02T19:00:00Z,30.3836,-88.4364,0.84,0.3,1111122 
NERRS,ioos:station:NOAA.NERRS:gndbcwq:1,2014-05-02T20:00:00Z,30.3836,-88.4364,0.79,0.6,1111122 
NERRS,ioos:station:NOAA.NERRS:gndbcwq:1,2014-05-02T21:00:00Z,30.3836,-88.4364,0.74,1.3,1111122 
NERRS,ioos:station:NOAA.NERRS:gndbcwq:1,2014-05-02T22:00:00Z,30.3836,-88.4364,0.71,0.5,1111122 
NERRS,ioos:station:NOAA.NERRS:gndbcwq:1,2014-05-02T23:00:00Z,30.3836,-88.4364,0.63,0.3,1111122 
NERRS,ioos:station:NOAA.NERRS:gndbcwq:1,2014-05-03T00:00:00Z,30.3836,-88.4364,0.54,0.3,1111122 
NERRS,ioos:station:NOAA.NERRS:gndbcwq:1,2014-05-03T01:00:00Z,30.3836,-88.4364,0.47,0.4,1111122 
NERRS,ioos:station:NOAA.NERRS:gndbcwq:1,2014-05-03T02:00:00Z,30.3836,-88.4364,0.42,0.5,1111122 
NERRS,ioos:station:NOAA.NERRS:gndbcwq:1,2014-05-03T03:00:00Z,30.3836,-88.4364,0.4,0.3,1111122 
NERRS,ioos:station:NOAA.NERRS:gndbcwq:1,2014-05-03T04:00:00Z,30.3836,-88.4364,0.38,0.3,1111122 
NERRS,ioos:station:NOAA.NERRS:gndbcwq:1,2014-05-03T05:00:00Z,30.3836,-88.4364,0.36,0.3,1111122 
NERRS,ioos:station:NOAA.NERRS:gndbcwq:1,2014-05-03T06:00:00Z,30.3836,-88.4364,0.39,0.1,1111122 
NERRS,ioos:station:NOAA.NERRS:gndbcwq:1,2014-05-03T07:00:00Z,30.3836,-88.4364,0.42,0.1,1111122 
NERRS,ioos:station:NOAA.NERRS:gndbcwq:1,2014-05-03T09:00:00Z,30.3836,-88.4364,0.51,0.1,1111122 
NERRS,ioos:station:NOAA.NERRS:gndbcwq:1,2014-05-03T10:00:00Z,30.3836,-88.4364,0.54,0.1,1111122 
NERRS,ioos:station:NOAA.NERRS:gndbcwq:1,2014-05-03T11:00:00Z,30.3836,-88.4364,0.57,0.1,1111122 
NERRS,ioos:station:NOAA.NERRS:gndbcwq:1,2014-05-03T19:00:00Z,30.3836,-88.4364,0.81,0.1,1111122 
NERRS,ioos:station:NOAA.NERRS:gndbcwq:1,2014-05-03T20:00:00Z,30.3836,-88.4364,0.78,0.1,1111122 
NERRS,ioos:station:NOAA.NERRS:gndbcwq:1,2014-05-03T21:00:00Z,30.3836,-88.4364,0.75,0.1,1111122 
NERRS,ioos:station:NOAA.NERRS:gndbcwq:1,2014-05-03T22:00:00Z,30.3836,-88.4364,0.71,0.1,1111122 
NERRS,ioos:station:NOAA.NERRS:gndbcwq:1,2014-05-03T23:00:00Z,30.3836,-88.4364,0.64,0.2,1111122 
NERRS,ioos:station:NOAA.NERRS:gndbcwq:1,2014-05-04T00:00:00Z,30.3836,-88.4364,0.55,0.3,1111122 
NERRS,ioos:station:NOAA.NERRS:gndbcwq:1,2014-05-04T01:00:00Z,30.3836,-88.4364,0.48,0.4,1111122 
NERRS,ioos:station:NOAA.NERRS:gndbcwq:1,2014-05-04T02:00:00Z,30.3836,-88.4364,0.44,0.3,1111122 
NERRS,ioos:station:NOAA.NERRS:gndbcwq:1,2014-05-04T03:00:00Z,30.3836,-88.4364,0.41,0.3,1111122 
NERRS,ioos:station:NOAA.NERRS:gndbcwq:1,2014-05-04T04:00:00Z,30.3836,-88.4364,0.39,0.2,1111122 
NERRS,ioos:station:NOAA.NERRS:gndbcwq:1,2014-05-04T05:00:00Z,30.3836,-88.4364,0.35,0.3,1111122 
NERRS,ioos:station:NOAA.NERRS:gndbcwq:1,2014-05-04T06:00:00Z,30.3836,-88.4364,0.32,0.2,1111122 
NERRS,ioos:station:NOAA.NERRS:gndbcwq:1,2014-05-04T07:00:00Z,30.3836,-88.4364,0.31,0.2,1111122 
NERRS,ioos:station:NOAA.NERRS:gndbcwq:1,2014-05-04T08:00:00Z,30.3836,-88.4364,0.33,0.1,1111122 
NERRS,ioos:station:NOAA.NERRS:gndbcwq:1,2014-05-04T09:00:00Z,30.3836,-88.4364,0.35,0.1,1111122 
NERRS,ioos:station:NOAA.NERRS:gndbcwq:1,2014-05-04T10:00:00Z,30.3836,-88.4364,0.4,0.1,1111122 
NERRS,ioos:station:NOAA.NERRS:gndbcwq:1,2014-05-04T11:00:00Z,30.3836,-88.4364,0.44,0.1,1111122 
NERRS,ioos:station:NOAA.NERRS:gndbcwq:1,2014-05-04T12:00:00Z,30.3836,-88.4364,0.49,0.1,1111122 
NERRS,ioos:station:NOAA.NERRS:gndbcwq:1,2014-05-04T14:00:00Z,30.3836,-88.4364,0.59,0.1,1111122 
NERRS,ioos:station:NOAA.NERRS:gndbcwq:1,2014-05-04T15:00:00Z,30.3836,-88.4364,0.63,0.1,1111122 
NERRS,ioos:station:NOAA.NERRS:gndbcwq:1,2014-05-04T21:00:00Z,30.3836,-88.4364,0.66,0.1,1111122 
NERRS,ioos:station:NOAA.NERRS:gndbcwq:1,2014-05-04T22:00:00Z,30.3836,-88.4364,0.62,0.1,1111122 
NERRS,ioos:station:NOAA.NERRS:gndbcwq:1,2014-05-04T23:00:00Z,30.3836,-88.4364,0.57,0.2,1111122 
NERRS,ioos:station:NOAA.NERRS:gndbcwq:1,2014-05-05T00:00:00Z,30.3836,-88.4364,0.51,0.3,1111122 
NERRS,ioos:station:NOAA.NERRS:gndbcwq:1,2014-05-05T01:00:00Z,30.3836,-88.4364,0.45,0.5,1111122 
NERRS,ioos:station:NOAA.NERRS:gndbcwq:1,2014-05-05T02:00:00Z,30.3836,-88.4364,0.42,0.2,1111122 
NERRS,ioos:station:NOAA.NERRS:gndbcwq:1,2014-05-05T03:00:00Z,30.3836,-88.4364,0.38,0.2,1111122 
NERRS,ioos:station:NOAA.NERRS:gndbcwq:1,2014-05-05T04:00:00Z,30.3836,-88.4364,0.36,0.2,1111122 
NERRS,ioos:station:NOAA.NERRS:gndbcwq:1,2014-05-05T05:00:00Z,30.3836,-88.4364,0.32,0.2,1111122 
NERRS,ioos:station:NOAA.NERRS:gndbcwq:1,2014-05-05T06:00:00Z,30.3836,-88.4364,0.3,0.2,1111122 
NERRS,ioos:station:NOAA.NERRS:gndbcwq:1,2014-05-05T07:00:00Z,30.3836,-88.4364,0.3,0.2,1111122 
NERRS,ioos:station:NOAA.NERRS:gndbcwq:1,2014-05-05T08:00:00Z,30.3836,-88.4364,0.31,0.1,1111122 
NERRS,ioos:station:NOAA.NERRS:gndbcwq:1,2014-05-05T09:00:00Z,30.3836,-88.4364,0.34,0.1,1111122 
NERRS,ioos:station:NOAA.NERRS:gndbcwq:1,2014-05-05T10:00:00Z,30.3836,-88.4364,0.36,0.1,1111122 
NERRS,ioos:station:NOAA.NERRS:gndbcwq:1,2014-05-05T11:00:00Z,30.3836,-88.4364,0.4,0.1,1111122 
NERRS,ioos:station:NOAA.NERRS:gndbcwq:1,2014-05-05T12:00:00Z,30.3836,-88.4364,0.46,0.1,1111122 
NERRS,ioos:station:NOAA.NERRS:gndbcwq:1,2014-05-05T13:00:00Z,30.3836,-88.4364,0.52,0.1,1111122 
NERRS,ioos:station:NOAA.NERRS:gndbcwq:1,2014-05-05T14:00:00Z,30.3836,-88.4364,0.56,0.1,1111122 
NERRS,ioos:station:NOAA.NERRS:gndbcwq:1,2014-05-05T15:00:00Z,30.3836,-88.4364,0.59,0.1,1111122 
NERRS,ioos:station:NOAA.NERRS:gndbcwq:1,2014-05-05T16:00:00Z,30.3836,-88.4364,0.63,0.1,1111122 
NERRS,ioos:station:NOAA.NERRS:gndbcwq:1,2014-05-05T17:00:00Z,30.3836,-88.4364,0.66,0.1,1111122 
NERRS,ioos:station:NOAA.NERRS:gndbcwq:1,2014-05-05T18:00:00Z,30.3836,-88.4364,0.68,0.1,1111122 
NERRS,ioos:station:NOAA.NERRS:gndbcwq:1,2014-05-05T19:00:00Z,30.3836,-88.4364,0.69,0.1,1111122 
NERRS,ioos:station:NOAA.NERRS:gndbcwq:1,2014-05-05T20:00:00Z,30.3836,-88.4364,0.67,0.1,1111122 
NERRS,ioos:station:NOAA.NERRS:gndbcwq:1,2014-05-05T21:00:00Z,30.3836,-88.4364,0.64,0.1,1111122 
NERRS,ioos:station:NOAA.NERRS:gndbcwq:1,2014-05-05T22:00:00Z,30.3836,-88.4364,0.6,0.1,1111122 
NERRS,ioos:station:NOAA.NERRS:gndbcwq:1,2014-05-05T23:00:00Z,30.3836,-88.4364,0.57,0.2,1111122 
NERRS,ioos:station:NOAA.NERRS:gndbcwq:1,2014-05-06T00:00:00Z,30.3836,-88.4364,0.52,0.2,1111122 
NERRS,ioos:station:NOAA.NERRS:gndbcwq:1,2014-05-06T01:00:00Z,30.3836,-88.4364,0.48,0.2,1111122 
NERRS,ioos:station:NOAA.NERRS:gndbcwq:1,2014-05-06T02:00:00Z,30.3836,-88.4364,0.43,0.2,1111122 
NERRS,ioos:station:NOAA.NERRS:gndbcwq:1,2014-05-06T03:00:00Z,30.3836,-88.4364,0.41,0.3,1111122 
NERRS,ioos:station:NOAA.NERRS:gndbcwq:1,2014-05-06T04:00:00Z,30.3836,-88.4364,0.38,0.4,1111122 
NERRS,ioos:station:NOAA.NERRS:gndbcwq:1,2014-05-06T05:00:00Z,30.3836,-88.4364,0.38,0.1,1111122 
NERRS,ioos:station:NOAA.NERRS:gndbcwq:1,2014-05-06T06:00:00Z,30.3836,-88.4364,0.38,0.1,1111122 
NERRS,ioos:station:NOAA.NERRS:gndbcwq:1,2014-05-06T07:00:00Z,30.3836,-88.4364,0.38,0.1,1111122 
NERRS,ioos:station:NOAA.NERRS:gndbcwq:1,2014-05-06T08:00:00Z,30.3836,-88.4364,0.37,0.1,1111122 
NERRS,ioos:station:NOAA.NERRS:gndbcwq:1,2014-05-06T09:00:00Z,30.3836,-88.4364,0.39,0.1,1111122 
NERRS,ioos:station:NOAA.NERRS:gndbcwq:1,2014-05-06T10:00:00Z,30.3836,-88.4364,0.43,0.1,1111122 
NERRS,ioos:station:NOAA.NERRS:gndbcwq:1,2014-05-06T11:00:00Z,30.3836,-88.4364,0.49,0.1,1111122 
NERRS,ioos:station:NOAA.NERRS:gndbcwq:1,2014-05-06T12:00:00Z,30.3836,-88.4364,0.52,0.1,1111122 
NERRS,ioos:station:NOAA.NERRS:gndbcwq:1,2014-05-06T13:00:00Z,30.3836,-88.4364,0.55,0.1,1111122 
NERRS,ioos:station:NOAA.NERRS:gndbcwq:1,2014-05-06T14:00:00Z,30.3836,-88.4364,0.6,0.1,1111122 
NERRS,ioos:station:NOAA.NERRS:gndbcwq:1,2014-05-06T15:00:00Z,30.3836,-88.4364,0.63,0.1,1111122 
NERRS,ioos:station:NOAA.NERRS:gndbcwq:1,2014-05-06T16:00:00Z,30.3836,-88.4364,0.65,0.1,1111122 
NERRS,ioos:station:NOAA.NERRS:gndbcwq:1,2014-05-06T17:00:00Z,30.3836,-88.4364,0.66,0.1,1111122 
NERRS,ioos:station:NOAA.NERRS:gndbcwq:1,2014-05-06T18:00:00Z,30.3836,-88.4364,0.66,0.2,1111122 
NERRS,ioos:station:NOAA.NERRS:gndbcwq:1,2014-05-06T19:00:00Z,30.3836,-88.4364,0.66,0.2,1111122 
NERRS,ioos:station:NOAA.NERRS:gndbcwq:1,2014-05-06T20:00:00Z,30.3836,-88.4364,0.66,0.2,1111122 
NERRS,ioos:station:NOAA.NERRS:gndbcwq:1,2014-05-06T21:00:00Z,30.3836,-88.4364,0.64,0.1,1111122 
NERRS,ioos:station:NOAA.NERRS:gndbcwq:1,2014-05-06T22:00:00Z,30.3836,-88.4364,0.61,0.2,1111122 
NERRS,ioos:station:NOAA.NERRS:gndbcwq:1,2014-05-06T23:00:00Z,30.3836,-88.4364,0.58,0.1,1111122 
NERRS,ioos:station:NOAA.NERRS:gndbcwq:1,2014-05-07T00:00:00Z,30.3836,-88.4364,0.56,0.1,1111122 
NERRS,ioos:station:NOAA.NERRS:gndbcwq:1,2014-05-07T01:00:00Z,30.3836,-88.4364,0.54,0.2,1111122 
NERRS,ioos:station:NOAA.NERRS:gndbcwq:1,2014-05-07T02:00:00Z,30.3836,-88.4364,0.51,0.2,1111122 
NERRS,ioos:station:NOAA.NERRS:gndbcwq:1,2014-05-07T03:00:00Z,30.3836,-88.4364,0.48,0.2,1111122 
NERRS,ioos:station:NOAA.NERRS:gndbcwq:1,2014-05-07T04:00:00Z,30.3836,-88.4364,0.46,0.1,1111122 
NERRS,ioos:station:NOAA.NERRS:gndbcwq:1,2014-05-07T05:00:00Z,30.3836,-88.4364,0.46,0.2,1111122 
NERRS,ioos:station:NOAA.NERRS:gndbcwq:1,2014-05-07T06:00:00Z,30.3836,-88.4364,0.48,0.2,1111122 
NERRS,ioos:station:NOAA.NERRS:gndbcwq:1,2014-05-07T07:00:00Z,30.3836,-88.4364,0.51,0.2,1111122 
NERRS,ioos:station:NOAA.NERRS:gndbcwq:1,2014-05-07T08:00:00Z,30.3836,-88.4364,0.54,0.2,1111122 
NERRS,ioos:station:NOAA.NERRS:gndbcwq:1,2014-05-07T09:00:00Z,30.3836,-88.4364,0.57,0.2,1111122 
NERRS,ioos:station:NOAA.NERRS:gndbcwq:1,2014-05-07T10:00:00Z,30.3836,-88.4364,0.58,0.2,1111122 
NERRS,ioos:station:NOAA.NERRS:gndbcwq:1,2014-05-07T11:00:00Z,30.3836,-88.4364,0.61,0.2,1111122 
NERRS,ioos:station:NOAA.NERRS:gndbcwq:1,2014-05-07T12:00:00Z,30.3836,-88.4364,0.64,0.2,1111122 
NERRS,ioos:station:NOAA.NERRS:gndbcwq:1,2014-05-07T13:00:00Z,30.3836,-88.4364,0.69,0.2,1111122 
NERRS,ioos:station:NOAA.NERRS:gndbcwq:1,2014-05-07T14:00:00Z,30.3836,-88.4364,0.74,0.3,1111122 
NERRS,ioos:station:NOAA.NERRS:gndbcwq:1,2014-05-07T15:00:00Z,30.3836,-88.4364,0.78,0.6,1111122 
NERRS,ioos:station:NOAA.NERRS:gndbcwq:1,2014-05-07T16:00:00Z,30.3836,-88.4364,0.8,1.8,1111122 
NERRS,ioos:station:NOAA.NERRS:gndbcwq:1,2014-05-07T17:00:00Z,30.3836,-88.4364,0.8,2.0,1111122 
NERRS,ioos:station:NOAA.NERRS:gndbcwq:1,2014-05-07T18:00:00Z,30.3836,-88.4364,0.78,1.2,1111122 
NERRS,ioos:station:NOAA.NERRS:gndbcwq:1,2014-05-07T19:00:00Z,30.3836,-88.4364,0.78,1.3,1111122 
NERRS,ioos:station:NOAA.NERRS:gndbcwq:1,2014-05-07T20:00:00Z,30.3836,-88.4364,0.76,1.1,1111122 
NERRS,ioos:station:NOAA.NERRS:gndbcwq:1,2014-05-07T21:00:00Z,30.3836,-88.4364,0.73,1.2,1111122 
NERRS,ioos:station:NOAA.NERRS:gndbcwq:1,2014-05-07T22:00:00Z,30.3836,-88.4364,0.72,1.3,1111122 
NERRS,ioos:station:NOAA.NERRS:gndbcwq:1,2014-05-08T00:00:00Z,30.3836,-88.4364,0.64,1.1,1111122 
NERRS,ioos:station:NOAA.NERRS:gndbcwq:1,2014-05-08T01:00:00Z,30.3836,-88.4364,0.59,1.1,1111122 
NERRS,ioos:station:NOAA.NERRS:gndbcwq:1,2014-05-08T02:00:00Z,30.3836,-88.4364,0.56,0.5,1111122 
NERRS,ioos:station:NOAA.NERRS:gndbcwq:1,2014-05-08T03:00:00Z,30.3836,-88.4364,0.55,0.4,1111122 
NERRS,ioos:station:NOAA.NERRS:gndbcwq:1,2014-05-08T04:00:00Z,30.3836,-88.4364,0.54,0.3,1111122 
NERRS,ioos:station:NOAA.NERRS:gndbcwq:1,2014-05-08T05:00:00Z,30.3836,-88.4364,0.55,0.3,1111122 
NERRS,ioos:station:NOAA.NERRS:gndbcwq:1,2014-05-08T06:00:00Z,30.3836,-88.4364,0.53,0.3,1111122 
NERRS,ioos:station:NOAA.NERRS:gndbcwq:1,2014-05-08T07:00:00Z,30.3836,-88.4364,0.54,0.3,1111122 
NERRS,ioos:station:NOAA.NERRS:gndbcwq:1,2014-05-08T08:00:00Z,30.3836,-88.4364,0.58,0.4,1111122 
NERRS,ioos:station:NOAA.NERRS:gndbcwq:1,2014-05-08T09:00:00Z,30.3836,-88.4364,0.59,0.5,1111122 
NERRS,ioos:station:NOAA.NERRS:gndbcwq:1,2014-05-08T10:00:00Z,30.3836,-88.4364,0.6,0.5,1111122 
NERRS,ioos:station:NOAA.NERRS:gndbcwq:1,2014-05-08T11:00:00Z,30.3836,-88.4364,0.6,0.5,1111122 
NERRS,ioos:station:NOAA.NERRS:gndbcwq:1,2014-05-08T12:00:00Z,30.3836,-88.4364,0.63,0.5,1111122 
NERRS,ioos:station:NOAA.NERRS:gndbcwq:1,2014-05-08T13:00:00Z,30.3836,-88.4364,0.68,0.5,1111122 
NERRS,ioos:station:NOAA.NERRS:gndbcwq:1,2014-05-08T14:00:00Z,30.3836,-88.4364,0.72,0.6,1111122 
NERRS,ioos:station:NOAA.NERRS:gndbcwq:1,2014-05-08T15:00:00Z,30.3836,-88.4364,0.75,0.8,1111122 
NERRS,ioos:station:NOAA.NERRS:gndbcwq:1,2014-05-08T16:00:00Z,30.3836,-88.4364,0.74,1.3,1111122 
NERRS,ioos:station:NOAA.NERRS:gndbcwq:1,2014-05-08T17:00:00Z,30.3836,-88.4364,0.72,1.2,1111122 
NERRS,ioos:station:NOAA.NERRS:gndbcwq:1,2014-05-08T18:00:00Z,30.3836,-88.4364,0.7,1.1,1111122 
NERRS,ioos:station:NOAA.NERRS:gndbcwq:1,2014-05-08T19:00:00Z,30.3836,-88.4364,0.72,0.9,1111122 
NERRS,ioos:station:NOAA.NERRS:gndbcwq:1,2014-05-08T20:00:00Z,30.3836,-88.4364,0.73,1.0,1111122 
NERRS,ioos:station:NOAA.NERRS:gndbcwq:1,2014-05-08T21:00:00Z,30.3836,-88.4364,0.73,1.0,1111122 
NERRS,ioos:station:NOAA.NERRS:gndbcwq:1,2014-05-08T22:00:00Z,30.3836,-88.4364,0.72,1.1,1111122 
NERRS,ioos:station:NOAA.NERRS:gndbcwq:1,2014-05-08T23:00:00Z,30.3836,-88.4364,0.71,1.1,1111122 
NERRS,ioos:station:NOAA.NERRS:gndbcwq:1,2014-05-09T00:00:00Z,30.3836,-88.4364,0.69,1.0,1111122 
NERRS,ioos:station:NOAA.NERRS:gndbcwq:1,2014-05-09T01:00:00Z,30.3836,-88.4364,0.68,0.8,1111122 
NERRS,ioos:station:NOAA.NERRS:gndbcwq:1,2014-05-09T02:00:00Z,30.3836,-88.4364,0.7,0.9,1111122 
NERRS,ioos:station:NOAA.NERRS:gndbcwq:1,2014-05-09T03:00:00Z,30.3836,-88.4364,0.71,1.1,1111122 
NERRS,ioos:station:NOAA.NERRS:gndbcwq:1,2014-05-09T04:00:00Z,30.3836,-88.4364,0.7,1.0,1111122 
NERRS,ioos:station:NOAA.NERRS:gndbcwq:1,2014-05-09T05:00:00Z,30.3836,-88.4364,0.67,0.9,1111122 
NERRS,ioos:station:NOAA.NERRS:gndbcwq:1,2014-05-09T06:00:00Z,30.3836,-88.4364,0.65,0.7,1111122 
NERRS,ioos:station:NOAA.NERRS:gndbcwq:1,2014-05-09T07:00:00Z,30.3836,-88.4364,0.63,0.7,1111122 
NERRS,ioos:station:NOAA.NERRS:gndbcwq:1,2014-05-09T08:00:00Z,30.3836,-88.4364,0.64,0.8,1111122 
NERRS,ioos:station:NOAA.NERRS:gndbcwq:1,2014-05-09T09:00:00Z,30.3836,-88.4364,0.66,0.9,1111122 
NERRS,ioos:station:NOAA.NERRS:gndbcwq:1,2014-05-09T10:00:00Z,30.3836,-88.4364,0.69,0.8,1111122 
NERRS,ioos:station:NOAA.NERRS:gndbcwq:1,2014-05-09T12:00:00Z,30.3836,-88.4364,0.73,1.1,1111122 
NERRS,ioos:station:NOAA.NERRS:gndbcwq:1,2014-05-09T13:00:00Z,30.3836,-88.4364,0.74,1.1,1111122 
NERRS,ioos:station:NOAA.NERRS:gndbcwq:1,2014-05-09T14:00:00Z,30.3836,-88.4364,0.77,1.2,1111122 
NERRS,ioos:station:NOAA.NERRS:gndbcwq:1,2014-05-09T15:00:00Z,30.3836,-88.4364,0.8,1.7,1111122 
NERRS,ioos:station:NOAA.NERRS:gndbcwq:1,2014-05-09T16:00:00Z,30.3836,-88.4364,0.8,3.2,1111122 
NERRS,ioos:station:NOAA.NERRS:gndbcwq:1,2014-05-09T17:00:00Z,30.3836,-88.4364,0.79,2.4,1111122 
NERRS,ioos:station:NOAA.NERRS:gndbcwq:1,2014-05-09T18:00:00Z,30.3836,-88.4364,0.74,2.1,1111122 
NERRS,ioos:station:NOAA.NERRS:gndbcwq:1,2014-05-09T19:00:00Z,30.3836,-88.4364,0.72,1.9,1111122 
NERRS,ioos:station:NOAA.NERRS:gndbcwq:1,2014-05-09T20:00:00Z,30.3836,-88.4364,0.68,1.6,1111122 
NERRS,ioos:station:NOAA.NERRS:gndbcwq:1,2014-05-09T21:00:00Z,30.3836,-88.4364,0.64,1.3,1111122 
NERRS,ioos:station:NOAA.NERRS:gndbcwq:1,2014-05-09T22:00:00Z,30.3836,-88.4364,0.63,1.2,1111122 
NERRS,ioos:station:NOAA.NERRS:gndbcwq:1,2014-05-09T23:00:00Z,30.3836,-88.4364,0.62,1.0,1111122 
NERRS,ioos:station:NOAA.NERRS:gndbcwq:1,2014-05-10T00:00:00Z,30.3836,-88.4364,0.63,1.0,1111122 
NERRS,ioos:station:NOAA.NERRS:gndbcwq:1,2014-05-10T01:00:00Z,30.3836,-88.4364,0.63,1.0,1111122 
NERRS,ioos:station:NOAA.NERRS:gndbcwq:1,2014-05-10T02:00:00Z,30.3836,-88.4364,0.67,1.2,1111122 
NERRS,ioos:station:NOAA.NERRS:gndbcwq:1,2014-05-10T03:00:00Z,30.3836,-88.4364,0.68,1.2,1111122 
NERRS,ioos:station:NOAA.NERRS:gndbcwq:1,2014-05-10T04:00:00Z,30.3836,-88.4364,0.71,1.3,1111122 
NERRS,ioos:station:NOAA.NERRS:gndbcwq:1,2014-05-10T05:00:00Z,30.3836,-88.4364,0.75,3.4,1111122 
NERRS,ioos:station:NOAA.NERRS:gndbcwq:1,2014-05-10T06:00:00Z,30.3836,-88.4364,0.76,3.9,1111122 
NERRS,ioos:station:NOAA.NERRS:gndbcwq:1,2014-05-10T07:00:00Z,30.3836,-88.4364,0.73,1.8,1111122 
NERRS,ioos:station:NOAA.NERRS:gndbcwq:1,2014-05-10T08:00:00Z,30.3836,-88.4364,0.62,2.0,1111122 
NERRS,ioos:station:NOAA.NERRS:gndbcwq:1,2014-05-10T09:00:00Z,30.3836,-88.4364,0.55,1.6,1111122 
NERRS,ioos:station:NOAA.NERRS:gndbcwq:1,2014-05-10T10:00:00Z,30.3836,-88.4364,0.61,1.4,1111122 
NERRS,ioos:station:NOAA.NERRS:gndbcwq:1,2014-05-10T11:00:00Z,30.3836,-88.4364,0.65,1.5,1111122 
NERRS,ioos:station:NOAA.NERRS:gndbcwq:1,2014-05-10T12:00:00Z,30.3836,-88.4364,0.76,2.0,1111122 
NERRS,ioos:station:NOAA.NERRS:gndbcwq:1,2014-05-10T13:00:00Z,30.3836,-88.4364,0.83,3.8,1111122 
NERRS,ioos:station:NOAA.NERRS:gndbcwq:1,2014-05-10T14:00:00Z,30.3836,-88.4364,0.85,4.5,1111122 
NERRS,ioos:station:NOAA.NERRS:gndbcwq:1,2014-05-10T15:00:00Z,30.3836,-88.4364,0.84,5.1,1111122 
NERRS,ioos:station:NOAA.NERRS:gndbcwq:1,2014-05-10T16:00:00Z,30.3836,-88.4364,0.82,4.8,1111122 
NERRS,ioos:station:NOAA.NERRS:gndbcwq:1,2014-05-10T17:00:00Z,30.3836,-88.4364,0.82,4.9,1111122 
NERRS,ioos:station:NOAA.NERRS:gndbcwq:1,2014-05-10T18:00:00Z,30.3836,-88.4364,0.79,3.4,1111122 
NERRS,ioos:station:NOAA.NERRS:gndbcwq:1,2014-05-10T19:00:00Z,30.3836,-88.4364,0.74,3.6,1111122 
NERRS,ioos:station:NOAA.NERRS:gndbcwq:1,2014-05-10T20:00:00Z,30.3836,-88.4364,0.71,2.7,1111122 
NERRS,ioos:station:NOAA.NERRS:gndbcwq:1,2014-05-10T21:00:00Z,30.3836,-88.4364,0.67,2.6,1111122 
NERRS,ioos:station:NOAA.NERRS:gndbcwq:1,2014-05-10T22:00:00Z,30.3836,-88.4364,0.6,2.4,1111122 
NERRS,ioos:station:NOAA.NERRS:gndbcwq:1,2014-05-10T23:00:00Z,30.3836,-88.4364,0.57,1.8,1111122 
NERRS,ioos:station:NOAA.NERRS:gndbcwq:1,2014-05-11T00:00:00Z,30.3836,-88.4364,0.58,1.6,1111122 
NERRS,ioos:station:NOAA.NERRS:gndbcwq:1,2014-05-11T01:00:00Z,30.3836,-88.4364,0.63,1.7,1111122 
NERRS,ioos:station:NOAA.NERRS:gndbcwq:1,2014-05-11T02:00:00Z,30.3836,-88.4364,0.65,1.8,1111122 
NERRS,ioos:station:NOAA.NERRS:gndbcwq:1,2014-05-11T03:00:00Z,30.3836,-88.4364,0.68,1.8,1111122 
NERRS,ioos:station:NOAA.NERRS:gndbcwq:1,2014-05-11T04:00:00Z,30.3836,-88.4364,0.66,1.6,1111122 
NERRS,ioos:station:NOAA.NERRS:gndbcwq:1,2014-05-11T05:00:00Z,30.3836,-88.4364,0.66,1.3,1111122 
NERRS,ioos:station:NOAA.NERRS:gndbcwq:1,2014-05-11T06:00:00Z,30.3836,-88.4364,0.69,1.8,1111122 
NERRS,ioos:station:NOAA.NERRS:gndbcwq:1,2014-05-11T07:00:00Z,30.3836,-88.4364,0.69,1.9,1111122 
NERRS,ioos:station:NOAA.NERRS:gndbcwq:1,2014-05-11T08:00:00Z,30.3836,-88.4364,0.7,2.0,1111122 
NERRS,ioos:station:NOAA.NERRS:gndbcwq:1,2014-05-11T09:00:00Z,30.3836,-88.4364,0.7,2.0,1111122 
NERRS,ioos:station:NOAA.NERRS:gndbcwq:1,2014-05-11T10:00:00Z,30.3836,-88.4364,0.73,2.1,1111122 
NERRS,ioos:station:NOAA.NERRS:gndbcwq:1,2014-05-11T11:00:00Z,30.3836,-88.4364,0.77,2.5,1111122 
NERRS,ioos:station:NOAA.NERRS:gndbcwq:1,2014-05-11T12:00:00Z,30.3836,-88.4364,0.81,3.1,1111122 
NERRS,ioos:station:NOAA.NERRS:gndbcwq:1,2014-05-11T13:00:00Z,30.3836,-88.4364,0.84,3.9,1111122 
NERRS,ioos:station:NOAA.NERRS:gndbcwq:1,2014-05-11T14:00:00Z,30.3836,-88.4364,0.85,4.8,1111122 
NERRS,ioos:station:NOAA.NERRS:gndbcwq:1,2014-05-11T15:00:00Z,30.3836,-88.4364,0.86,5.4,1111122 
NERRS,ioos:station:NOAA.NERRS:gndbcwq:1,2014-05-11T16:00:00Z,30.3836,-88.4364,0.86,5.8,1111122 
NERRS,ioos:station:NOAA.NERRS:gndbcwq:1,2014-05-11T17:00:00Z,30.3836,-88.4364,0.83,5.1,1111122 
NERRS,ioos:station:NOAA.NERRS:gndbcwq:1,2014-05-11T18:00:00Z,30.3836,-88.4364,0.79,4.6,1111122 
NERRS,ioos:station:NOAA.NERRS:gndbcwq:1,2014-05-11T19:00:00Z,30.3836,-88.4364,0.75,3.8,1111122 
NERRS,ioos:station:NOAA.NERRS:gndbcwq:1,2014-05-11T20:00:00Z,30.3836,-88.4364,0.7,2.9,1111122 
NERRS,ioos:station:NOAA.NERRS:gndbcwq:1,2014-05-11T21:00:00Z,30.3836,-88.4364,0.64,2.7,1111122 
NERRS,ioos:station:NOAA.NERRS:gndbcwq:1,2014-05-11T22:00:00Z,30.3836,-88.4364,0.59,2.0,1111122 
NERRS,ioos:station:NOAA.NERRS:gndbcwq:1,2014-05-11T23:00:00Z,30.3836,-88.4364,0.57,1.4,1111122 
NERRS,ioos:station:NOAA.NERRS:gndbcwq:1,2014-05-12T00:00:00Z,30.3836,-88.4364,0.61,1.8,1111122 